"Period start","avg(HW err(1)/warn(2) (#))","avg(Visibility (m))","avg(Weather code (#))","avg(Precip intensity (mm/h))","min(HW err(1)/warn(2) (#))","max(HW err(1)/warn(2) (#))","std(HW err(1)/warn(2) (#))","med(HW err(1)/warn(2) (#))","min(Visibility (m))","max(Visibility (m))","std(Visibility (m))","med(Visibility (m))","min(Weather code (#))","max(Weather code (#))","std(Weather code (#))","med(Weather code (#))","min(Precip intensity (mm/h))","max(Precip intensity (mm/h))","std(Precip intensity (mm/h))","med(Precip intensity (mm/h))"
2017-09-07 00:00:00,2,49768,0,0.00,2,2,0,2,48627,50000,473,50000,0,0,0,0,0.00,0.00,0.00,0.00
2017-09-07 00:10:00,2,49959,0,0.00,2,2,0,2,49594,50000,122,50000,0,0,0,0,0.00,0.00,0.00,0.00
2017-09-07 00:20:00,2,49971,0,0.00,2,2,0,2,49712,50000,86,50000,0,0,0,0,0.00,0.00,0.00,0.00
2017-09-07 00:30:00,2,49994,0,0.00,2,2,0,2,49940,50000,18,50000,0,0,0,0,0.00,0.00,0.00,0.00
2017-09-07 00:40:00,2,49905,0,0.00,2,2,0,2,49050,50000,285,50000,0,0,0,0,0.00,0.00,0.00,0.00
2017-09-07 00:50:00,2,50000,0,0.00,2,2,0,2,50000,50000,0,50000,0,0,0,0,0.00,0.00,0.00,0.00
2017-09-07 01:00:00,2,50000,0,0.00,2,2,0,2,50000,50000,0,50000,0,0,0,0,0.00,0.00,0.00,0.00
2017-09-07 01:10:00,2,41250,0,0.00,2,2,0,2,23067,50000,10333,46962,0,0,0,0,0.00,0.00,0.00,0.00
2017-09-07 01:20:00,2,20722,0,0.00,2,2,0,2,5644,41393,12835,16706,0,0,0,0,0.00,0.00,0.00,0.00
2017-09-07 01:30:00,2,17486,0,0.00,2,2,0,2,8045,29510,7355,17276,0,0,0,0,0.00,0.00,0.00,0.00
2017-09-07 01:40:00,2,28957,0,0.00,2,2,0,2,9528,50000,14808,29390,0,0,0,0,0.00,0.00,0.00,0.00
2017-09-07 01:50:00,2,23812,0,0.00,2,2,0,2,4254,49303,15659,21582,0,0,0,0,0.00,0.00,0.00,0.00
2017-09-07 02:00:00,2,17684,0,0.00,2,2,0,2,6089,41180,11813,12325,0,0,0,0,0.00,0.00,0.00,0.00
2017-09-07 02:10:00,2,39382,0,0.00,2,2,0,2,14897,50000,12714,43760,0,0,0,0,0.00,0.00,0.00,0.00
2017-09-07 02:20:00,2,40442,0,0.00,2,2,0,2,17759,50000,11853,46164,0,0,0,0,0.00,0.00,0.00,0.00
2017-09-07 02:30:00,2,46299,0,0.00,2,2,0,2,34353,50000,5523,49514,0,0,0,0,0.00,0.00,0.00,0.00
2017-09-07 02:40:00,2,35631,0,0.00,2,2,0,2,17913,50000,11465,35880,0,0,0,0,0.00,0.00,0.00,0.00
2017-09-07 02:50:00,2,8824,4,0.00,2,2,0,2,3590,14215,3353,8887,0,10,5,0,0.00,0.00,0.00,0.00
2017-09-07 03:00:00,2,4189,39,0.21,2,2,0,2,2501,12371,2953,3082,10,61,22,40,0.00,0.65,0.21,0.25
2017-09-07 03:10:00,2,3866,70,0.17,2,2,0,2,2203,7233,1721,3062,61,71,3,71,0.00,0.75,0.28,0.00
2017-09-07 03:20:00,2,4021,62,2.66,2,2,0,2,2421,6994,1267,3902,61,71,3,61,0.55,8.35,2.96,1.20
2017-09-07 03:30:00,2,15508,36,0.14,2,2,0,2,7988,34210,8297,12603,0,61,29,56,0.00,0.50,0.18,0.10
2017-09-07 03:40:00,2,18167,33,0.04,2,2,0,2,4490,27304,7651,18368,0,51,23,51,0.00,0.25,0.08,0.00
2017-09-07 03:50:00,2,4978,39,0.41,2,2,0,2,3096,8816,1792,4194,0,61,28,52,0.00,1.10,0.42,0.25
2017-09-07 04:00:00,2,14205,35,0.06,2,2,0,2,5490,24218,6161,17048,10,61,23,51,0.00,0.45,0.14,0.00
2017-09-07 04:10:00,2,19799,26,0.03,2,2,0,2,5932,46004,15322,12296,0,61,28,10,0.00,0.15,0.05,0.00
2017-09-07 04:20:00,2,31472,0,0.00,2,2,0,2,15577,50000,12618,25231,0,0,0,0,0.00,0.00,0.00,0.00
2017-09-07 04:30:00,2,11027,14,0.07,2,2,0,2,5893,21644,4687,8278,0,41,19,0,0.00,0.40,0.12,0.00
2017-09-07 04:40:00,2,44293,9,0.00,2,2,0,2,31775,50000,6350,45361,0,41,17,0,0.00,0.00,0.00,0.00
2017-09-07 04:50:00,2,49720,0,0.00,2,2,0,2,47862,50000,650,50000,0,0,0,0,0.00,0.00,0.00,0.00
2017-09-07 05:00:00,2,41799,0,0.00,2,2,0,2,20601,50000,9652,47693,0,0,0,0,0.00,0.00,0.00,0.00
2017-09-07 05:10:00,2,24047,0,0.00,2,2,0,2,13278,49892,10023,20481,0,0,0,0,0.00,0.00,0.00,0.00
2017-09-07 05:20:00,2,48099,0,0.00,2,2,0,2,39430,50000,3235,50000,0,0,0,0,0.00,0.00,0.00,0.00
2017-09-07 05:30:00,2,48077,0,0.00,2,2,0,2,42132,50000,2925,49866,0,0,0,0,0.00,0.00,0.00,0.00
2017-09-07 05:40:00,2,41102,0,0.00,2,2,0,2,27919,50000,8126,40052,0,0,0,0,0.00,0.00,0.00,0.00
2017-09-07 05:50:00,2,49992,0,0.00,2,2,0,2,49926,50000,23,50000,0,0,0,0,0.00,0.00,0.00,0.00
2017-09-07 06:00:00,2,50000,0,0.00,2,2,0,2,50000,50000,0,50000,0,0,0,0,0.00,0.00,0.00,0.00
2017-09-07 06:10:00,2,38032,0,0.00,2,2,0,2,18194,50000,11013,42105,0,0,0,0,0.00,0.00,0.00,0.00
2017-09-07 06:20:00,2,33951,0,0.00,2,2,0,2,4417,50000,17675,42689,0,0,0,0,0.00,0.00,0.00,0.00
2017-09-07 06:30:00,2,35896,0,0.00,2,2,0,2,4679,50000,20291,49601,0,0,0,0,0.00,0.00,0.00,0.00
2017-09-07 06:40:00,2,24124,0,0.00,2,2,0,2,8264,45542,11233,21500,0,0,0,0,0.00,0.00,0.00,0.00
2017-09-07 06:50:00,2,30997,0,0.00,2,2,0,2,10143,50000,13756,28425,0,0,0,0,0.00,0.00,0.00,0.00
2017-09-07 07:00:00,2,41071,0,0.00,2,2,0,2,26565,50000,8810,44515,0,0,0,0,0.00,0.00,0.00,0.00
2017-09-07 07:10:00,2,47767,0,0.00,2,2,0,2,42007,50000,3196,50000,0,0,0,0,0.00,0.00,0.00,0.00
2017-09-07 07:20:00,2,39781,0,0.00,2,2,0,2,29906,50000,7672,42142,0,0,0,0,0.00,0.00,0.00,0.00
2017-09-07 07:30:00,2,49571,0,0.00,2,2,0,2,46886,50000,961,50000,0,0,0,0,0.00,0.00,0.00,0.00
2017-09-07 07:40:00,2,41150,0,0.00,2,2,0,2,11699,50000,14633,50000,0,0,0,0,0.00,0.00,0.00,0.00
2017-09-07 07:50:00,2,24759,0,0.00,2,2,0,2,10902,42907,10660,24760,0,0,0,0,0.00,0.00,0.00,0.00
2017-09-07 08:00:00,2,11822,0,0.00,2,2,0,2,4097,28700,6909,9946,0,0,0,0,0.00,0.00,0.00,0.00
2017-09-07 08:10:00,2,20235,9,0.00,2,2,0,2,6339,44419,10686,18207,0,10,3,10,0.00,0.00,0.00,0.00
2017-09-07 08:20:00,2,26455,0,0.00,2,2,0,2,6921,50000,14848,24429,0,0,0,0,0.00,0.00,0.00,0.00
2017-09-07 08:30:00,2,38058,0,0.00,2,2,0,2,22355,50000,8754,39297,0,0,0,0,0.00,0.00,0.00,0.00
2017-09-07 08:40:00,2,48516,0,0.00,2,2,0,2,40701,50000,2959,50000,0,0,0,0,0.00,0.00,0.00,0.00
2017-09-07 08:50:00,2,24000,0,0.00,2,2,0,2,8831,43045,12964,17298,0,0,0,0,0.00,0.00,0.00,0.00
2017-09-07 09:00:00,2,25753,0,0.00,2,2,0,2,14039,38886,7281,26581,0,0,0,0,0.00,0.00,0.00,0.00
2017-09-07 09:10:00,2,11020,1,0.00,2,2,0,2,4036,18116,5298,9132,0,10,3,0,0.00,0.00,0.00,0.00
2017-09-07 09:20:00,2,11361,10,0.00,2,2,0,2,6123,24096,4972,10342,10,10,0,10,0.00,0.00,0.00,0.00
2017-09-07 09:30:00,2,14220,2,0.00,2,2,0,2,5893,22822,5578,13046,0,10,4,0,0.00,0.00,0.00,0.00
2017-09-07 09:40:00,2,18840,8,0.00,2,2,0,2,4198,48278,14388,15552,0,10,4,10,0.00,0.00,0.00,0.00
2017-09-07 09:50:00,2,10161,17,0.41,2,2,0,2,3758,27826,7619,6576,0,40,19,5,0.00,1.85,0.67,0.00
2017-09-07 10:00:00,2,6707,24,0.10,2,2,0,2,1818,17731,5708,4140,0,41,17,26,0.00,0.45,0.16,0.00
2017-09-07 10:10:00,2,6671,36,0.31,2,2,0,2,1211,15114,4085,6332,10,61,26,36,0.00,3.10,0.93,0.00
2017-09-07 10:20:00,2,4262,51,0.68,2,2,0,2,1624,12198,3214,2686,10,61,20,61,0.00,4.05,1.17,0.20
2017-09-07 10:30:00,2,5274,55,0.80,2,2,0,2,1530,16175,5310,2644,51,61,5,52,0.00,2.95,0.80,0.68
2017-09-07 10:40:00,2,41976,8,0.00,2,2,0,2,30026,50000,6820,41754,0,10,4,10,0.00,0.00,0.00,0.00
2017-09-07 10:50:00,2,35034,0,0.00,2,2,0,2,19253,50000,10718,32608,0,0,0,0,0.00,0.00,0.00,0.00
2017-09-07 11:00:00,2,32005,0,0.00,2,2,0,2,10421,50000,15758,31642,0,0,0,0,0.00,0.00,0.00,0.00
2017-09-07 11:10:00,2,31219,0,0.00,2,2,0,2,16331,44688,9051,33823,0,0,0,0,0.00,0.00,0.00,0.00
2017-09-07 11:20:00,2,24943,0,0.00,2,2,0,2,4827,50000,20129,11632,0,0,0,0,0.00,0.00,0.00,0.00
2017-09-07 11:30:00,2,17103,5,0.00,2,2,0,2,5694,36060,8396,17008,0,10,5,5,0.00,0.00,0.00,0.00
2017-09-07 11:40:00,2,34009,0,0.00,2,2,0,2,14888,50000,10474,33902,0,0,0,0,0.00,0.00,0.00,0.00
2017-09-07 11:50:00,2,33817,0,0.00,2,2,0,2,9521,49417,13815,34105,0,0,0,0,0.00,0.00,0.00,0.00
2017-09-07 12:00:00,2,41284,0,0.00,2,2,0,2,19871,50000,11337,46822,0,0,0,0,0.00,0.00,0.00,0.00
2017-09-07 12:10:00,2,9776,32,0.97,2,2,0,2,1785,28768,8447,5292,0,61,24,40,0.00,6.10,1.80,0.00
2017-09-07 12:20:00,2,17321,7,0.00,2,2,0,2,5554,43210,13019,10622,0,10,5,10,0.00,0.00,0.00,0.00
2017-09-07 12:30:00,2,3701,42,1.68,2,2,0,2,2682,5334,877,3380,0,52,15,46,0.00,3.65,1.33,1.60
2017-09-07 12:40:00,2,18449,27,0.06,2,2,0,2,3679,43229,12176,15509,10,52,21,10,0.00,0.50,0.15,0.00
2017-09-07 12:50:00,2,9836,34,0.74,2,2,0,2,3360,24158,6514,8012,0,61,28,46,0.00,3.05,1.02,0.33
2017-09-07 13:00:00,2,3527,50,2.65,2,2,0,2,2323,5655,925,3246,0,61,17,52,0.00,5.45,1.57,2.20
2017-09-07 13:10:00,2,3788,52,1.63,2,2,0,2,2438,7364,1293,3454,52,52,0,52,0.10,4.15,1.05,1.45
2017-09-07 13:20:00,2,39180,21,0.01,2,2,0,2,8006,50000,14458,46827,0,52,20,10,0.00,0.15,0.05,0.00
2017-09-07 13:30:00,2,33814,0,0.00,2,2,0,2,12560,49929,10932,35767,0,0,0,0,0.00,0.00,0.00,0.00
2017-09-07 13:40:00,2,9194,39,0.96,2,2,0,2,3236,19931,5333,7334,0,61,26,52,0.00,5.00,1.48,0.30
2017-09-07 13:50:00,2,33401,22,0.08,2,2,0,2,6728,50000,17810,41632,10,52,19,10,0.00,0.60,0.18,0.00
2017-09-07 14:00:00,2,33863,0,0.00,2,2,0,2,20917,50000,11384,30162,0,0,0,0,0.00,0.00,0.00,0.00
2017-09-07 14:10:00,2,23650,12,0.26,2,2,0,2,4536,50000,18524,13054,0,61,24,0,0.00,2.20,0.66,0.00
2017-09-07 14:20:00,2,6669,52,0.95,2,2,0,2,3935,13798,2733,5744,10,61,15,56,0.00,2.20,0.61,0.95
2017-09-07 14:30:00,2,28770,31,0.12,2,2,0,2,7077,50000,17441,26076,0,52,25,51,0.00,0.50,0.17,0.00
2017-09-07 14:40:00,2,50000,0,0.00,2,2,0,2,50000,50000,0,50000,0,0,0,0,0.00,0.00,0.00,0.00
2017-09-07 14:50:00,2,49965,0,0.00,2,2,0,2,49648,50000,106,50000,0,0,0,0,0.00,0.00,0.00,0.00
2017-09-07 15:00:00,2,50000,0,0.00,2,2,0,2,50000,50000,0,50000,0,0,0,0,0.00,0.00,0.00,0.00
2017-09-07 15:10:00,2,50000,0,0.00,2,2,0,2,50000,50000,0,50000,0,0,0,0,0.00,0.00,0.00,0.00
2017-09-07 15:20:00,2,26884,13,0.05,2,2,0,2,8073,50000,18066,16744,0,51,20,0,0.00,0.30,0.10,0.00
2017-09-07 15:30:00,2,25696,40,0.06,2,2,0,2,7949,45341,12323,23204,0,61,26,51,0.00,0.20,0.07,0.00
2017-09-07 15:40:00,2,37396,0,0.00,2,2,0,2,16159,50000,8581,39836,0,0,0,0,0.00,0.00,0.00,0.00
2017-09-07 15:50:00,2,29878,16,0.21,2,2,0,2,9157,50000,16593,26166,0,41,20,0,0.00,1.10,0.38,0.00
2017-09-07 16:00:00,2,11257,61,2.14,2,2,0,2,5139,18474,3735,10792,61,61,0,61,0.00,6.85,1.99,1.70
2017-09-07 16:10:00,2,34148,30,0.46,2,2,0,2,15345,50000,11611,36634,0,61,30,30,0.00,1.70,0.69,0.00
2017-09-07 16:20:00,2,25352,57,0.75,2,2,0,2,13124,49864,9769,22088,51,61,5,61,0.00,1.95,0.70,0.57
2017-09-07 16:30:00,2,45717,26,0.04,2,2,0,2,35123,50000,5901,50000,0,51,26,26,0.00,0.25,0.08,0.00
2017-09-07 16:40:00,2,45731,0,0.00,2,2,0,2,27744,50000,7496,50000,0,0,0,0,0.00,0.00,0.00,0.00
2017-09-07 16:50:00,2,14074,43,2.81,2,2,0,2,4360,45133,13103,6792,0,61,28,61,0.00,9.50,2.99,2.38
2017-09-07 17:00:00,2,26757,61,1.22,2,2,0,2,5498,47803,16022,29616,61,61,0,61,0.05,3.95,1.37,0.40
2017-09-07 17:10:00,2,47793,10,0.00,2,2,0,2,31526,50000,5509,50000,0,61,21,0,0.00,0.00,0.00,0.00
2017-09-07 17:20:00,2,12783,55,1.79,2,2,0,2,5966,30973,8148,8044,40,61,7,56,0.50,4.20,1.13,1.40
2017-09-07 17:30:00,2,15294,59,0.95,2,2,0,2,6973,31495,7927,12466,51,61,4,61,0.15,1.90,0.54,0.85
2017-09-07 17:40:00,2,16726,61,3.26,2,2,0,2,3823,40595,14080,8758,61,62,0,61,0.20,13.85,4.06,1.60
2017-09-07 17:50:00,2,25329,54,0.88,2,2,0,2,8060,38898,9444,26999,51,61,4,52,0.00,4.50,1.45,0.20
2017-09-07 18:00:00,2,11978,54,2.06,2,2,0,2,3841,26630,7103,10077,52,61,4,52,0.20,11.35,3.18,1.00
2017-09-07 18:10:00,2,6740,61,5.56,2,2,0,2,4651,14782,2803,5894,61,62,0,61,0.55,15.80,4.05,4.42
2017-09-07 18:20:00,2,10659,60,1.29,2,2,0,2,7208,16991,2977,10138,52,61,3,61,0.15,5.20,1.42,0.97
2017-09-07 18:30:00,2,16094,48,1.09,2,2,0,2,8491,31753,7136,14833,0,61,24,61,0.00,2.80,1.04,0.80
2017-09-07 18:40:00,2,47894,12,0.00,2,2,0,2,34766,50000,4708,50000,0,61,24,0,0.00,0.00,0.00,0.00
2017-09-07 18:50:00,2,50000,0,0.00,2,2,0,2,50000,50000,0,50000,0,0,0,0,0.00,0.00,0.00,0.00
2017-09-07 19:00:00,2,50000,0,0.00,2,2,0,2,50000,50000,0,50000,0,0,0,0,0.00,0.00,0.00,0.00
2017-09-07 19:10:00,2,33543,12,0.33,2,2,0,2,4453,50000,20266,50000,0,40,18,0,0.00,1.15,0.50,0.00
2017-09-07 19:20:00,2,42955,18,0.06,2,2,0,2,16204,50000,11544,50000,0,61,28,0,0.00,0.55,0.17,0.00
2017-09-07 19:30:00,2,50000,0,0.00,2,2,0,2,50000,50000,0,50000,0,0,0,0,0.00,0.00,0.00,0.00
2017-09-07 19:40:00,2,21729,35,1.14,2,2,0,2,5376,50000,18358,10521,0,61,29,52,0.00,5.60,1.79,0.15
2017-09-07 19:50:00,2,34926,17,1.36,2,2,0,2,3776,50000,18047,45914,0,61,27,0,0.00,9.50,2.87,0.00
2017-09-07 20:00:00,2,50000,0,0.00,2,2,0,2,50000,50000,0,50000,0,0,0,0,0.00,0.00,0.00,0.00
2017-09-07 20:10:00,2,20654,18,0.33,2,2,0,2,3652,50000,16037,12578,0,61,28,0,0.00,1.55,0.54,0.00
2017-09-07 20:20:00,2,49988,0,0.00,2,2,0,2,49879,50000,36,50000,0,0,0,0,0.00,0.00,0.00,0.00
2017-09-07 20:30:00,2,35813,18,0.16,2,2,0,2,11221,50000,14845,40120,0,51,23,0,0.00,0.85,0.28,0.00
2017-09-07 20:40:00,2,35812,12,0.21,2,2,0,2,9664,50000,13722,40069,0,61,24,0,0.00,1.70,0.51,0.00
2017-09-07 20:50:00,2,49991,0,0.00,2,2,0,2,49909,50000,27,50000,0,0,0,0,0.00,0.00,0.00,0.00
2017-09-07 21:00:00,2,33170,18,0.64,2,2,0,2,2864,50000,20812,50000,0,61,28,0,0.00,4.65,1.39,0.00
2017-09-07 21:10:00,2,31140,28,0.18,2,2,0,2,6546,50000,18026,35567,0,61,29,26,0.00,0.80,0.30,0.00
2017-09-07 21:20:00,2,20208,40,1.33,2,2,0,2,3281,50000,16530,12707,0,61,26,52,0.00,8.05,2.36,0.60
2017-09-07 21:30:00,2,36396,20,0.03,2,2,0,2,8379,50000,17164,48266,0,61,27,5,0.00,0.30,0.09,0.00
2017-09-07 21:40:00,2,48033,30,0.08,2,2,0,2,40303,50000,3368,50000,0,61,30,26,0.00,0.45,0.16,0.00
2017-09-07 21:50:00,2,50000,0,0.00,2,2,0,2,50000,50000,0,50000,0,0,0,0,0.00,0.00,0.00,0.00
2017-09-07 22:00:00,2,37761,6,0.04,2,2,0,2,13686,50000,11266,39597,0,61,18,0,0.00,0.35,0.11,0.00
2017-09-07 22:10:00,2,30891,37,0.70,2,2,0,2,5129,50000,17594,35040,0,61,30,61,0.00,4.85,1.50,0.00
2017-09-07 22:20:00,2,19283,46,0.26,2,2,0,2,10114,35993,8246,16280,0,61,23,56,0.00,1.05,0.32,0.10
2017-09-07 22:30:00,2,38736,39,0.25,2,2,0,2,13594,50000,11437,42120,0,61,26,51,0.00,1.20,0.38,0.08
2017-09-07 22:40:00,2,38767,6,0.21,2,2,0,2,8224,50000,14318,46418,0,61,18,0,0.00,2.15,0.65,0.00
2017-09-07 22:50:00,2,26014,24,0.19,2,2,0,2,9706,47988,10951,24640,0,61,30,0,0.00,1.00,0.36,0.00
2017-09-07 23:00:00,2,34361,20,0.46,2,2,0,2,7268,50000,19249,50000,0,61,26,0,0.00,2.55,0.81,0.00
2017-09-07 23:10:00,2,40641,37,0.24,2,2,0,2,8586,50000,13892,48968,0,61,30,61,0.00,2.00,0.59,0.03
2017-09-07 23:20:00,2,49425,0,0.00,2,2,0,2,45219,50000,1417,50000,0,0,0,0,0.00,0.00,0.00,0.00
2017-09-07 23:30:00,2,40454,23,0.08,2,2,0,2,10923,50000,13170,47380,0,51,24,20,0.00,0.40,0.14,0.00
2017-09-07 23:40:00,2,49492,14,0.01,2,2,0,2,46687,50000,1073,50000,0,51,22,0,0.00,0.05,0.02,0.00
2017-09-07 23:50:00,2,42962,0,0.00,2,2,0,2,33724,48654,4713,43508,0,0,0,0,0.00,0.00,0.00,0.00
